Content
SEND FEEDBACK

Daily
Averages
Monthly
Summary
United States of America

ROCK HILL, NEW YORK


Home > North America > United States > New York
Elevation: 384 meters     Latitude: 41 35N     Longitude: 074 37W

WEATHER
 
SELECT A DAY
Number of Records: 443,433;   Date Range: 1/1/95 - 7/26/14
 
SHARE

PRINT THIS DATA

[ ← Previous Day ]
WEATHER ALMANAC - OCTOBER 23, 2013
[ Next Day → ]
[ °C ]   °F
Weather ElementAverageHighLow
Temperature37.7 °F48.2 °F (1:35 pm)30.2 °F (4:55 am)
Dewpoint28.1 °F32 °F (11:15 am)24.8 °F (1:35 am)
Humidity69.6 %86 % (7:15 am)43 % (1:35 pm)
Barometer29.73 in29.83 in (12:35 am)29.64 in (1:55 pm)
Wind Speed4.4 mph11.5 mph (5:35 pm)
Wind Gust16.1 mph (5:35 pm)
Weather ElementAverage
Visibility10 mi
Wind DirectionSSE (173 °)

Weather ElementTotal
Precipitation---
Heating Degree Days25.8 (Base 65)
Averaged from 71 records on October 23, 2013
WEATHER CONDITIONS BREAKOUT
WIND DIRECTION BREAKOUT
WEATHER BY HOUR - OCTOBER 23, 2013
[ °C ]   °F
Local TimeTemperatureDewpointHumidityBarometerVisibilityWind DirectionWind SpeedGust SpeedPrecipitationEventsConditions
12:35 AM37.4 °F26.6 °F65 %29.83 in10.0 miWest (280°)5.8 mphClear
12:55 AM37.4 °F26.6 °F65 %29.83 in10.0 miWest (280°)6.9 mphClear
1:15 AM37.4 °F26.6 °F65 %29.82 in10.0 miWNW (290°)6.9 mphClear
1:35 AM35.6 °F24.8 °F65 %29.82 in10.0 miNW (310°)8.1 mphClear
1:55 AM33.8 °F24.8 °F70 %29.82 in10.0 miCalmClear
2:15 AM33.8 °F26.6 °F75 %29.81 in10.0 miCalmClear
2:35 AM33.8 °F26.6 °F75 %29.81 in10.0 miNNW (330°)5.8 mphClear
2:55 AM33.8 °F26.6 °F75 %29.80 in10.0 miCalmClear
3:15 AM33.8 °F26.6 °F75 %29.78 in10.0 miNNW (340°)3.5 mphClear
3:35 AM33.8 °F26.6 °F75 %29.78 in10.0 miCalmClear
3:55 AM33.8 °F26.6 °F75 %29.78 in10.0 miSW (230°)3.5 mphClear
4:15 AM32.0 °F24.8 °F75 %29.78 in10.0 miWSW (240°)3.5 mphClear
4:35 AM32.0 °F24.8 °F75 %29.78 in10.0 miCalmPartly Cloudy
4:55 AM30.2 °F24.8 °F80 %29.77 in10.0 miCalmClear
5:15 AM30.2 °F24.8 °F80 %29.77 in10.0 miCalmClear
5:35 AM30.2 °F24.8 °F80 %29.77 in10.0 miCalmClear
5:55 AM30.2 °F24.8 °F80 %29.76 in10.0 miCalmClear
6:15 AM30.2 °F24.8 °F80 %29.77 in10.0 miCalmClear
6:35 AM30.2 °F24.8 °F80 %29.76 in10.0 miNorth (360°)4.6 mphClear
6:55 AM30.2 °F24.8 °F80 %29.76 in10.0 miCalmClear
7:15 AM30.2 °F26.6 °F86 %29.76 in10.0 miNorth (10°)3.5 mphMostly Cloudy
7:35 AM30.2 °F26.6 °F86 %29.76 in10.0 miCalmMostly Cloudy
7:55 AM30.2 °F26.6 °F86 %29.77 in10.0 miCalmMostly Cloudy
8:15 AM32.0 °F26.6 °F80 %29.77 in10.0 miCalmOvercast
8:35 AM33.8 °F28.4 °F81 %29.77 in10.0 miCalmOvercast
8:55 AM33.8 °F28.4 °F81 %29.77 in10.0 miCalmOvercast
9:15 AM33.8 °F28.4 °F81 %29.77 in10.0 miCalmOvercast
9:35 AM33.8 °F28.4 °F81 %29.76 in10.0 miCalmOvercast
9:55 AM35.6 °F30.2 °F81 %29.76 in10.0 miCalmOvercast
10:15 AM37.4 °F30.2 °F75 %29.75 in10.0 miCalmOvercast
10:35 AM37.4 °F30.2 °F75 %29.75 in10.0 miCalmOvercast
10:55 AM39.2 °F30.2 °F70 %29.75 in10.0 miNW (310°)3.5 mphOvercast
11:15 AM42.8 °F32.0 °F66 %29.74 in10.0 miNorth (10°)5.8 mphMostly Cloudy
11:35 AM42.8 °F30.2 °F61 %29.73 in10.0 miCalmScattered Clouds
11:55 AM42.8 °F30.2 °F61 %29.72 in10.0 miCalmMostly Cloudy
12:15 PM44.6 °F30.2 °F57 %29.71 in10.0 miCalmScattered Clouds
12:35 PM46.4 °F28.4 °F50 %29.70 in10.0 miCalmClear
12:55 PM46.4 °F26.6 °F46 %29.67 in10.0 miENE (60°)3.5 mphPartly Cloudy
1:15 PM46.4 °F26.6 °F46 %29.65 in10.0 miCalmMostly Cloudy
1:35 PM48.2 °F26.6 °F43 %29.65 in10.0 miNW (320°)6.9 mphScattered Clouds
1:55 PM48.2 °F26.6 °F43 %29.64 in10.0 miNW (320°)5.8 mphMostly Cloudy
2:15 PM46.4 °F26.6 °F46 %29.64 in10.0 miWNW (300°)6.9 mphOvercast
2:35 PM46.4 °F26.6 °F46 %29.65 in10.0 miWest (270°)9.2 mphOvercast
2:55 PM46.4 °F26.6 °F46 %29.65 in10.0 miWest (270°)9.2 mphOvercast
3:15 PM44.6 °F24.8 °F46 %29.66 in10.0 miWNW (290°)8.1 mphOvercast
3:35 PM42.8 °F28.4 °F57 %29.67 in10.0 miWest (270°)8.1 mphOvercast
3:55 PM42.8 °F32.0 °F66 %29.67 in10.0 miWNW (290°)9.2 mphOvercast
4:15 PM41.0 °F30.2 °F65 %29.67 in10.0 miWest (280°)9.2 mphMostly Cloudy
4:35 PM41.0 °F30.2 °F65 %29.67 in10.0 miWNW (290°)9.2 mphMostly Cloudy
4:55 PM41.0 °F30.2 °F65 %29.67 in10.0 miWNW (300°)6.9 mphMostly Cloudy
5:15 PM41.0 °F30.2 °F65 %29.67 in10.0 miWNW (300°)6.9 mphPartly Cloudy
5:35 PM41.0 °F30.2 °F65 %29.67 in10.0 miWNW (290°)11.5 mph16.1 mphClear
5:55 PM39.2 °F30.2 °F70 %29.67 in10.0 miWNW (300°)9.2 mphClear
6:15 PM39.2 °F30.2 °F70 %29.68 in10.0 miWNW (300°)6.9 mphPartly Cloudy
6:35 PM39.2 °F30.2 °F70 %29.68 in10.0 miWNW (300°)6.9 mphClear
6:55 PM39.2 °F30.2 °F70 %29.69 in10.0 miWNW (290°)6.9 mphClear
7:15 PM39.2 °F30.2 °F70 %29.69 in10.0 miWNW (300°)9.2 mphPartly Cloudy
7:35 PM39.2 °F30.2 °F70 %29.70 in10.0 miWNW (300°)8.1 mphPartly Cloudy
7:55 PM39.2 °F30.2 °F70 %29.70 in10.0 miWNW (290°)8.1 mphClear
8:15 PM39.2 °F30.2 °F70 %29.70 in10.0 miWNW (290°)8.1 mphClear
8:35 PM37.4 °F30.2 °F75 %29.71 in10.0 miWest (280°)4.6 mphClear
8:55 PM37.4 °F28.4 °F70 %29.71 in10.0 miWest (270°)5.8 mphClear
9:15 PM37.4 °F30.2 °F75 %29.72 in10.0 miWest (280°)4.6 mphScattered Clouds
9:35 PM37.4 °F30.2 °F75 %29.72 in10.0 miWest (280°)8.1 mphMostly Cloudy
9:55 PM37.4 °F30.2 °F75 %29.73 in10.0 miWest (280°)9.2 mphScattered Clouds
10:15 PM37.4 °F30.2 °F75 %29.74 in10.0 miWest (270°)8.1 mphScattered Clouds
10:35 PM37.4 °F30.2 °F75 %29.74 in10.0 miWest (280°)8.1 mphPartly Cloudy
10:55 PM37.4 °F30.2 °F75 %29.75 in10.0 miWNW (290°)9.2 mphPartly Cloudy
11:15 PM37.4 °F30.2 °F75 %29.75 in10.0 miWNW (290°)9.2 mphMostly Cloudy
11:35 PM37.4 °F28.4 °F70 %29.75 in10.0 miWest (270°)4.6 mphPartly Cloudy
11:55 PM35.6 °F30.2 °F81 %29.76 in10.0 miWest (280°)6.9 mphScattered Clouds
Hourly data recorded from KMSV, located miles away from Rock Hill, New York







STORIES FROM OUR PARTNERS